COSMOS 2251 DEB, 35901

Orbit data source: Space-Track

COSMOS 2251 DEB, 35901 is space debris in LEO originally from a launch on Wed, 16 Jun 1993 UTC launched from the Plesetsk Missile And Space Complex (PKMTR). The debris from Iridium 33, an American commercial communications satellite, has been tracked extensively since its accidental collision with the defunct Russian satellite Cosmos 2251 in 2009. This event, occurring at high speed in low Earth orbit (LEO), generated thousands of pieces of space debris, significantly increasing the risk of further collisions. The Iridium 33 debris cloud has impacted space traffic management and orbital debris mitigation strategies, making it a subject of ongoing study in space situational awareness.

Loading next visibility...
Identifier
35901, 1993-036AUQ
Orbit
LEO
Country
Flag of CISCIS
Related business
Manufacturer
Unknown
Mission
Spacecraft
Bus & Motor
Unknown
Mass
Unknown
Launch date (UTC)
1993-06-16 (33 years ago)
Launch vehicle
Unknown
Launch site
Plesetsk Missile And Space Complex (PKMTR)
Object type
Payload
Rocket body
Debris
Shape & HBR
Unknown shape, 0.1 m
Radar Cross Section
Small (<0.1 m²)

Expand to show TLE details & history
Last TLE update: 6 days ago

TLE from 6 days ago
0 COSMOS 2251 DEB
1 35901U 93036AUQ 26114.70668236  .00113971  00000-0  36417-2 0  9996
2 35901  74.0027 104.3005 0011056 245.5809 114.4241 15.31867847881452
Epoch: 2026-04-24T16:57Z
TLE epoch observation values (Epoch: 2026-04-24T16:57:37.355Z)
Latitude
-0.00008°
Longitude
-2.84072°
Altitude
476.102 km
Speed
7.626 km/s
True Right ascension
06h 57m 12s
True Declination
0° 00' 00"
Sunlit
Object was in daylight at epoch
Visualization orbit readout
Latitude
Unknown
Longitude
Unknown
Altitude
Unknown
Speed
Unknown
Apparent Right ascension
Unknown
Apparent Declination
Unknown
Sunlit
N/A
Visualization observer readout
Local Sidereal Time
22:12:24
Azimuth
Unknown
Elevation
Unknown
Doppler factor
Unknown
Orbital elements
Apogee altitude
475.331 km
Perigee altitude
460.193 km
Semi-major axis
6,845.899 km
Eccentricity
0.00111
Inclination
74.0027°
RAAN
104.3005°
Arg. of periapsis
245.5809°
True anomaly
114.53939°
Mean anomaly
114.4241°
Eccentric anomaly
114.48175°
Mean motion
3.83175 °/min
Orbital period
93.95 mins
BSTAR
0.0036417
Loading maneuver chart data...
Computing Atmospheric mass density...

Documentation

Showing up to 5 results
|